Zurück zum Katalog

COSMOS 839 DEB

AktivUNKNOWN
NORAD 10450·DEBRIS·🇷🇺 Russia

Gestartet Jul 8, 1976 von Plesetsk Cosmodrome

Loading…

Nächste Überflüge (nächste 24 Stunden)

TLE

AktuellSource: Space-Track

Epoche: Sep 14, 2026, 09:43 UTC

1 10450U 76067AB  26257.40552061 -.00000092  00000-0 -85661-4 0  9994
2 10450  65.7450  55.1434 0748730  17.1886 345.3053 12.46855052283757

Verfolge COSMOS 839 DEB in Echtzeit mit AllMySat

Download on the App Store